Flag for Maldives Weather past 2 weeks in Male, Maldives

Now
81 °F

Passing clouds.


Feels Like: 86 °F
Forecast: 82 / 85 °F
Wind: 10 mph from West

Location: Male Airport

Current Time: Sep 4, 2015 at 3:25:50 AM

Latest Report: Sep 4, 2015 at 2:00 AM


Visibility: N/A

Pressure: 29.86 "Hg

Humidity: 84%

Dew point: 75 °F

Location of MaleLocation

Historic Weather in Male — Graph

°F

Male temperature yesterday

Maximum temperature yesterday: 86 °F (at 10:00 AM)
Minimum temperature yesterday: 77 °F (at 6:00 PM)
Average temperature yesterday: 82 °F

Past Weeks' High & Low Weather Summary

 TemperatureHumidityPressure
High90 °F (Aug 21, 1:00 PM)100% (Aug 20, 3:00 AM)29.95 "Hg (Aug 20, 3:00 AM)
Low77 °F (Aug 20, 1:00 AM)70% (Aug 20, 11:00 AM)29.77 "Hg (Sep 2, 3:00 PM)
Average83 °F82%29.87 "Hg
* Reported Aug 20 1:00 AM — Sep 4 1:00 AM, Male, Weather by CustomWeather, © 2015

Note: Actual official high and low records may vary slightly from our data, if they occured in-between our weather recording intervals... More about our weather records

Advertising

Male weather history for previous 24 hours

 ConditionsComfort  
Time TempWeatherWind HumidityBarometerVisibility
1:00 AM
Fri, Sep 4
81 °FPassing clouds.10 mph84%29.86 "HgN/A
12:00 AM79 °FOvercast.10 mph89%29.89 "HgN/A
11:00 PM
Thu, Sep 3
79 °FOvercast.9 mph89%29.92 "HgN/A
10:00 PM77 °FLight rain. Mostly cloudy.12 mph94%29.92 "Hg5 mi
9:00 PM79 °FLight rain. Mostly cloudy.10 mph89%29.92 "Hg5 mi
8:00 PM79 °FLight rain. Mostly cloudy.3 mph94%29.89 "Hg4 mi
7:00 PM79 °FLight rain. Mostly cloudy.2 mph94%29.89 "Hg4 mi
6:00 PM77 °FLight rain. Overcast.2 mph89%29.86 "Hg5 mi
4:00 PM79 °FThunderstorms. More clouds than sun.1 mph89%29.83 "Hg5 mi
3:00 PM82 °FOvercast.5 mph84%29.83 "Hg6 mi
2:00 PM82 °FOvercast.6 mph84%29.83 "Hg6 mi
1:00 PM81 °FLight rain. Partly sunny.6 mph89%29.86 "Hg6 mi
12:00 PM86 °FPartly sunny.13 mph79%29.86 "HgN/A
11:00 AM86 °FPartly sunny.9 mph79%29.89 "HgN/A
10:00 AM86 °FPartly sunny.9 mph84%29.89 "HgN/A
9:00 AM84 °FBroken clouds.10 mph84%29.89 "HgN/A
8:00 AM82 °FBroken clouds.9 mph84%29.86 "HgN/A
6:00 AM84 °FBroken clouds.12 mph84%29.83 "HgN/A
5:00 AM82 °FPartly cloudy.10 mph89%29.80 "HgN/A
4:00 AM82 °FPartly cloudy.12 mph89%29.80 "HgN/A
3:00 AM81 °FSprinkles. Partly cloudy.13 mph94%29.80 "HgN/A
Weather by CustomWeather, © 2015

See weather overviewHow to use our weather pages